Mitchell, SD

6:49 AM CST on February 23, 2018 (GMT -0600)
Mitchell Municipal

Weather History for KMHE - September, 2014

Change the Weather History Date:

Wednesday, September 3, 2014

  Actual Average Record
Temperature  
Mean Temperature 75 °F 68 °F  
Max Temperature 85 °F 80 °F 103 °F (1925)
Min Temperature 64 °F 56 °F 28 °F (1974)
Degree Days  
Heating Degree Days 0 2  
Month to date heating degree days 0 5  
Since 1 July heating degree days 12 22  
Cooling Degree Days 10 5  
Month to date cooling degree days 16 15  
Year to date cooling degree days 662 760  
Growing Degree Days 24 (Base 50)    
Moisture  
Dew Point 67 °F    
Average Humidity 81    
Maximum Humidity 93    
Minimum Humidity 69    
Precipitation  
Precipitation 0.00 in 0.09 in 1.56 in (1999)
Month to date precipitation 0.39 0.30  
Year to date precipitation 15.49 16.65  
Snow  
Snow 0.00 in - 0.00 in ()
Month to date snowfall 0.0  
Since 1 July snowfall 0.0  
Since 1 September snowfall 0.0  
Snow Depth 0.00 in    
Sea Level Pressure  
Sea Level Pressure 29.64 in    
Wind  
Wind Speed 14 mph (SSE)    
Max Wind Speed 22 mph    
Max Gust Speed 29 mph    
Visibility 10 miles    
Events      
T = Trace of Precipitation, MM = Missing Value Source: NWS Daily Summary

Daily Weather History Graph

Daily Weather History Graph

Search for Another Location

Airport or City:

Trip Planner

Search our weather history database for the weather conditions in past years. The results will help you decide how hot, cold, wet, or windy it might be!

Date:

Astronomy

Sep. 03, 2014 Rise Set
Actual Time 6:57 AM CDT 8:04 PM CDT
Civil Twilight 6:28 AM CDT 8:33 PM CDT
Nautical Twilight 5:53 AM CDT 9:08 PM CDT
Astronomical Twilight 5:15 AM CDT 9:45 PM CDT
Moon 3:53 PM CDT (9/3) 12:47 AM CDT (9/3)
Length of Visible Light 14h 05m
Length of Day
13h 06m
Waxing Gibbous, 64% of the Moon is Illuminated
Sep 3
Waxing Gibbous
Sep 8
Full
Sep 15
Last Quarter
Sep 24
New
Oct 1
First Quarter

Hourly Weather History & Observations

Time (CDT) Temp. Heat Index Dew Point Humidity Pressure Visibility Wind Dir Wind Speed Gust Speed Precip Events Conditions
12:53 AM 66.9 °F - 59.0 °F 76% 29.80 in 10.0 mi SSE 13.8 mph - N/A   Partly Cloudy
1:53 AM 66.0 °F - 59.0 °F 78% 29.76 in 10.0 mi SSE 13.8 mph - N/A   Partly Cloudy
2:53 AM 64.9 °F - 59.0 °F 81% 29.75 in 10.0 mi SSE 13.8 mph - N/A   Clear
3:53 AM 64.9 °F - 59.0 °F 81% 29.74 in 10.0 mi SSE 12.7 mph - N/A   Mostly Cloudy
4:53 AM 64.9 °F - 59.0 °F 81% 29.72 in 10.0 mi SSE 15.0 mph - N/A   Scattered Clouds
5:53 AM 64.9 °F - 59.0 °F 81% 29.70 in 10.0 mi SSE 16.1 mph - N/A   Clear
6:53 AM 64.9 °F - 60.1 °F 84% 29.67 in 10.0 mi SSE 12.7 mph - N/A   Clear
7:53 AM 66.0 °F - 62.1 °F 87% 29.65 in 10.0 mi SSE 11.5 mph - N/A   Clear
8:53 AM 70.0 °F - 64.9 °F 84% 29.65 in 10.0 mi South 9.2 mph - N/A   Scattered Clouds
9:53 AM 73.9 °F - 66.9 °F 79% 29.65 in 10.0 mi South 12.7 mph 18.4 mph N/A   Scattered Clouds
10:06 AM 75.0 °F - 68.0 °F 79% 29.67 in 10.0 mi South 11.5 mph - N/A   Mostly Cloudy
10:53 AM 78.1 °F - 70.0 °F 76% 29.64 in 10.0 mi South 15.0 mph 24.2 mph N/A   Overcast
11:53 AM 80.1 °F 83.6 °F 71.1 °F 74% 29.63 in 10.0 mi South 12.7 mph 19.6 mph N/A   Overcast
12:53 PM 79.0 °F - 71.1 °F 77% 29.61 in 10.0 mi South 17.3 mph 23.0 mph N/A   Overcast
1:41 PM 82.9 °F 88.0 °F 72.0 °F 69% 29.62 in 10.0 mi South 16.1 mph 24.2 mph N/A   Scattered Clouds
1:53 PM 82.9 °F 88.0 °F 72.0 °F 69% 29.60 in 10.0 mi South 17.3 mph 23.0 mph N/A   Partly Cloudy
2:53 PM 84.0 °F 90.2 °F 73.0 °F 69% 29.59 in 10.0 mi South 19.6 mph - N/A   Partly Cloudy
4:53 PM 84.0 °F 90.2 °F 73.0 °F 69% 29.55 in 10.0 mi South 16.1 mph 26.5 mph N/A   Clear
5:53 PM 84.0 °F 90.2 °F 73.0 °F 69% 29.56 in 10.0 mi South 16.1 mph 23.0 mph N/A   Clear
6:53 PM 84.0 °F 90.2 °F 73.0 °F 69% 29.57 in 10.0 mi South 16.1 mph - N/A   Clear
7:53 PM 82.0 °F 87.4 °F 73.0 °F 74% 29.57 in 10.0 mi South 10.4 mph - N/A   Clear
8:53 PM 78.1 °F - 72.0 °F 81% 29.58 in 10.0 mi SSE 9.2 mph - N/A   Clear
9:53 PM 75.9 °F - 72.0 °F 87% 29.58 in 10.0 mi SSE 10.4 mph - N/A   Clear
10:53 PM 73.9 °F - 72.0 °F 93% 29.57 in 10.0 mi SSE 9.2 mph - N/A   Clear
11:53 PM 73.9 °F - 72.0 °F 93% 29.56 in 10.0 mi SE 10.4 mph - N/A   Clear